Flag for U.S.A. Weather past 2 weeks in El Paso, Texas, U.S.A.

Now
52 °F

Light rain. More clouds than sun.


Feels Like: 49 °F
Forecast: 51 / 62 °F
Wind: 8 mph from Northeast

Location: El Paso International Airport

Current Time: Mar 3, 2015 at 10:20:55 AM

Latest Report: Mar 3, 2015 at 9:51 AM


Visibility: 7 mi

Pressure: 29.80 "Hg

Humidity: 86%

Dew point: 48 °F

Location of El PasoLocation

Historic Weather in El Paso — Graph

°F

El Paso temperature yesterday

Maximum temperature yesterday: 61 °F (at 9:51 PM)
Minimum temperature yesterday: 50 °F (at 11:51 AM)
Average temperature yesterday: 56 °F

Past Weeks' High & Low Weather Summary

 TemperatureHumidityPressure
High76 °F (Feb 19, 2:51 PM)87% (Mar 2, 5:51 PM)30.27 "Hg (Mar 2, 5:51 PM)
Low28 °F (Feb 28, 12:51 AM)9% (Mar 1, 2:51 PM)29.66 "Hg (Feb 21, 3:51 PM)
Average52 °F43%29.93 "Hg
* Reported Feb 16 8:51 AM — Mar 3 8:51 AM, El Paso, Weather by CustomWeather, © 2015

Note: Actual official high and low records may vary slightly from our data, if they occured in-between our weather recording intervals... More about our weather records

Advertising

El Paso weather history for previous 24 hours

 ConditionsComfort  
Time TempWeatherWind HumidityBarometerVisibility
8:51 AM
Tue, Mar 3
54 °FLight rain. Mostly cloudy.8 mph80%29.80 "Hg10 mi
7:51 AM53 °FLight rain. Cloudy.No wind83%29.79 "Hg10 mi
6:51 AM52 °FCloudy.6 mph83%29.77 "Hg10 mi
5:51 AM54 °FMostly cloudy.No wind74%29.75 "Hg10 mi
4:51 AM56 °FMostly cloudy.7 mph70%29.77 "Hg10 mi
3:51 AM54 °FMostly cloudy.5 mph72%29.77 "Hg10 mi
2:51 AM54 °FOvercast.5 mph72%29.76 "Hg10 mi
1:51 AM56 °FMostly cloudy.6 mph65%29.79 "Hg10 mi
12:51 AM57 °FMostly cloudy.9 mph62%29.81 "Hg10 mi
11:51 PM
Mon, Mar 2
58 °FMostly cloudy.8 mph60%29.83 "Hg10 mi
10:51 PM60 °FMostly cloudy.13 mph53%29.85 "Hg10 mi
9:51 PM61 °FPartly cloudy.9 mph54%29.84 "Hg10 mi
8:51 PM60 °FOvercast.10 mph60%29.85 "Hg10 mi
7:51 PM57 °FMostly cloudy.7 mph78%29.85 "Hg10 mi
6:51 PM55 °FOvercast.6 mph87%29.84 "Hg10 mi
5:51 PM55 °FLight rain. Overcast.7 mph87%29.85 "Hg10 mi
4:51 PM55 °FLight rain. Overcast.5 mph83%29.83 "Hg10 mi
3:51 PM53 °FLight rain. Overcast.3 mph77%29.86 "Hg5 mi
2:51 PM57 °FLight rain. Mostly cloudy.8 mph60%29.85 "Hg10 mi
1:51 PM55 °FLight rain. More clouds than sun.7 mph57%29.87 "Hg10 mi
12:51 PM53 °FMore clouds than sun.6 mph61%29.90 "Hg10 mi
11:51 AM50 °FLight rain. More clouds than sun.7 mph68%29.94 "Hg10 mi
10:51 AM52 °FLight rain. Overcast.8 mph59%29.96 "Hg10 mi
Weather by CustomWeather, © 2015

See weather overviewHow to use our weather pages